Weather History for Tullahoma, TN

Change the Weather History Date:

Sunday, May 19, 2013

  Actual Average Record
Temperature  
Mean Temperature 74 °F -  
Max Temperature 84 °F 78 °F 84 °F (2013)
Min Temperature 64 °F 56 °F 64 °F (2013)
Cooling Degree Days 9    
Growing Degree Days 24 (Base 50)    
Moisture  
Dew Point 66 °F    
Average Humidity 83    
Maximum Humidity 100    
Minimum Humidity 62    
Precipitation  
Precipitation 0.00 in - - ()
Sea Level Pressure  
Sea Level Pressure 30.02 in    
Wind  
Wind Speed 5 mph (SSW)    
Max Wind Speed 16 mph    
Max Gust Speed -    
Visibility 8 miles    
Events      
Averages and records for this station are not official NWS values.
T = Trace of Precipitation, MM = Missing Value Source: NWS Daily Summary

Daily Weather History Graph

Daily Weather History Graph

Search for Another Location

Airport:

Trip Planner

Search our weather history database for the weather conditions in past years. The results will help you decide how hot, cold, wet, or windy it might be!

Date:

Astronomy

May. 19, 2013 Rise Set
Actual Time 5:37 AM CDT 7:45 PM CDT
Civil Twilight 5:09 AM CDT 8:14 PM CDT
Nautical Twilight 4:34 AM CDT 8:49 PM CDT
Astronomical Twilight 3:56 AM CDT 9:27 PM CDT
Moon 2:01 PM CDT 1:47 AM CDT
Length of Visible Light 15h 05m
Length of Day
14h 08m
Waxing Gibbous, 65% of the Moon is Illuminated
May 19
Waxing Gibbous
May 24
Full
May 31
Last Quarter
Jun 8
New
Jun 16
First Quarter

Hourly Weather History & Observations

Time (CDT) Temp. Heat Index Dew Point Humidity Pressure Visibility Wind Dir Wind Speed Gust Speed Precip Events Conditions
12:15 AM 69.8 °F - 68.0 °F 94% 30.03 in 9.0 mi SE 4.6 mph - N/A   Clear
12:35 AM 69.8 °F - 68.0 °F 94% 30.03 in 8.0 mi SSE 3.5 mph - N/A   Clear
12:55 AM 68.0 °F - 66.2 °F 94% 30.02 in 5.0 mi Calm Calm - N/A   Clear
1:15 AM 66.2 °F - 66.2 °F 100% 30.02 in 5.0 mi Calm Calm - N/A   Scattered Clouds
1:35 AM 68.0 °F - 66.2 °F 94% 30.02 in 5.0 mi Calm Calm - N/A   Mostly Cloudy
1:55 AM 69.8 °F - 68.0 °F 94% 30.01 in 6.0 mi Calm Calm - N/A   Overcast
2:15 AM 66.2 °F - 66.2 °F 100% 30.01 in 5.0 mi Calm Calm - N/A   Scattered Clouds
2:35 AM 68.0 °F - 68.0 °F 100% 30.01 in 5.0 mi SSE 3.5 mph - N/A   Partly Cloudy
2:55 AM 68.0 °F - 68.0 °F 100% 30.01 in 5.0 mi Calm Calm - N/A   Partly Cloudy
3:15 AM 66.2 °F - 66.2 °F 100% 30.01 in 4.0 mi Calm Calm - N/A   Scattered Clouds
3:35 AM 66.2 °F - 66.2 °F 100% 30.02 in 1.2 mi Calm Calm - N/A   Mostly Cloudy
3:55 AM 66.2 °F - 64.4 °F 94% 30.01 in 0.5 mi Calm Calm - N/A   Unknown
4:15 AM 66.2 °F - 66.2 °F 100% 30.01 in 5.0 mi Calm Calm - N/A   Clear
4:35 AM 66.2 °F - 64.4 °F 94% 30.01 in 1.2 mi Calm Calm - N/A   Clear
4:55 AM 64.4 °F - 64.4 °F 100% 30.01 in 2.0 mi Calm Calm - N/A   Clear
5:15 AM 66.2 °F - 66.2 °F 100% 30.01 in 5.0 mi Calm Calm - N/A   Clear
5:35 AM 68.0 °F - 66.2 °F 94% 30.02 in 5.0 mi Calm Calm - N/A   Partly Cloudy
5:55 AM 68.0 °F - 68.0 °F 100% 30.02 in 5.0 mi South 3.5 mph - N/A   Scattered Clouds
6:15 AM 69.8 °F - 69.8 °F 100% 30.03 in 6.0 mi South 5.8 mph - N/A   Mostly Cloudy
6:35 AM 69.8 °F - 69.8 °F 100% 30.02 in 4.0 mi SW 5.8 mph - N/A   Partly Cloudy
7:15 AM 69.8 °F - 69.8 °F 100% 30.04 in 4.0 mi SSW 4.6 mph - N/A   Partly Cloudy
7:35 AM 69.8 °F - 69.8 °F 100% 30.04 in 4.0 mi South 4.6 mph - N/A   Mostly Cloudy
7:55 AM 71.6 °F - 69.8 °F 94% 30.03 in 4.0 mi SSW 6.9 mph - N/A   Overcast
8:15 AM 71.6 °F - 69.8 °F 94% 30.04 in 4.0 mi SW 8.1 mph - N/A   Overcast
8:35 AM 71.6 °F - 69.8 °F 94% 30.05 in 4.0 mi WSW 10.4 mph - N/A   Mostly Cloudy
8:55 AM 73.4 °F - 69.8 °F 88% 30.05 in 5.0 mi SW 10.4 mph - N/A   Mostly Cloudy
9:15 AM 73.4 °F - 69.8 °F 88% 30.06 in 6.0 mi WSW 8.1 mph - N/A   Mostly Cloudy
9:55 AM 77.0 °F - 71.6 °F 83% 30.04 in 7.0 mi WSW 10.4 mph - N/A   Scattered Clouds
10:15 AM 78.8 °F - 71.6 °F 78% 30.04 in 9.0 mi WSW 10.4 mph - N/A   Partly Cloudy
10:35 AM 78.8 °F - 71.6 °F 78% 30.05 in 10.0 mi West 9.2 mph - N/A   Scattered Clouds
10:55 AM 80.6 °F 83.9 °F 69.8 °F 70% 30.04 in 10.0 mi West 12.7 mph - N/A   Scattered Clouds
11:15 AM 80.6 °F 83.9 °F 69.8 °F 70% 30.04 in 10.0 mi WSW 12.7 mph - N/A   Scattered Clouds
11:35 AM 80.6 °F 83.9 °F 69.8 °F 70% 30.05 in 10.0 mi WSW 8.1 mph - N/A   Scattered Clouds
11:55 AM 80.6 °F 83.9 °F 69.8 °F 70% 30.04 in 10.0 mi SW 11.5 mph - N/A   Mostly Cloudy
12:15 PM 82.4 °F 86.3 °F 69.8 °F 66% 30.03 in 10.0 mi WSW 15.0 mph - N/A   Scattered Clouds
12:35 PM 84.2 °F 88.4 °F 69.8 °F 62% 30.02 in 10.0 mi SW 13.8 mph - N/A   Clear
12:55 PM 84.2 °F 88.4 °F 69.8 °F 62% 30.01 in 10.0 mi SW 16.1 mph - N/A   Clear
1:15 PM 84.2 °F 88.4 °F 69.8 °F 62% 30.00 in 10.0 mi WSW 12.7 mph - N/A   Partly Cloudy
1:35 PM 84.2 °F 88.4 °F 69.8 °F 62% 30.00 in 10.0 mi SW 13.8 mph - N/A   Partly Cloudy
2:15 PM 82.4 °F 85.4 °F 68.0 °F 62% 30.00 in 10.0 mi SW 12.7 mph - N/A   Mostly Cloudy
2:35 PM 82.4 °F 86.3 °F 69.8 °F 66% 30.01 in 10.0 mi SW 11.5 mph - N/A   Mostly Cloudy
3:15 PM 82.4 °F 86.3 °F 69.8 °F 66% 30.01 in 10.0 mi SW 9.2 mph - N/A   Partly Cloudy
3:35 PM 82.4 °F 86.3 °F 69.8 °F 66% 30.00 in 10.0 mi SW 13.8 mph - N/A   Partly Cloudy
3:55 PM 82.4 °F 86.3 °F 69.8 °F 66% 30.01 in 10.0 mi SW 11.5 mph - N/A   Partly Cloudy
4:15 PM 75.2 °F - 64.4 °F 69% 30.04 in 10.0 mi ESE 12.7 mph - N/A   Mostly Cloudy
4:35 PM 71.6 °F - 60.8 °F 69% 30.05 in 10.0 mi SE 15.0 mph - N/A   Overcast
4:55 PM 71.6 °F - 59.0 °F 64% 30.06 in 10.0 mi SE 10.4 mph - N/A   Overcast
5:15 PM 71.6 °F - 60.8 °F 69% 30.05 in 10.0 mi SE 16.1 mph - N/A   Overcast
5:35 PM 69.8 °F - 62.6 °F 78% 30.07 in 7.0 mi ESE 9.2 mph - N/A   Mostly Cloudy
5:55 PM 69.8 °F - 62.6 °F 78% 30.06 in 10.0 mi SE 6.9 mph - N/A   Partly Cloudy
6:15 PM 69.8 °F - 62.6 °F 78% 30.05 in 10.0 mi South 6.9 mph - N/A   Clear
6:35 PM 69.8 °F - 60.8 °F 73% 30.02 in 10.0 mi SSW 15.0 mph - N/A   Clear
6:55 PM 69.8 °F - 60.8 °F 73% 30.00 in 10.0 mi SSW 13.8 mph - N/A   Clear
7:15 PM 71.6 °F - 60.8 °F 69% 30.01 in 10.0 mi SSW 10.4 mph - N/A   Clear
7:35 PM 69.8 °F - 60.8 °F 73% 30.00 in 10.0 mi SW 6.9 mph - N/A   Clear
7:55 PM 69.8 °F - 60.8 °F 73% 30.00 in 10.0 mi SW 6.9 mph - N/A   Clear
8:15 PM 68.0 °F - 60.8 °F 78% 30.01 in 10.0 mi SSE 5.8 mph - N/A   Clear
8:35 PM 68.0 °F - 62.6 °F 83% 30.02 in 10.0 mi South 3.5 mph - N/A   Clear
8:55 PM 66.2 °F - 60.8 °F 83% 30.02 in 10.0 mi South 3.5 mph - N/A   Clear
9:15 PM 66.2 °F - 60.8 °F 83% 30.02 in 10.0 mi SSW 6.9 mph - N/A   Clear
9:35 PM 66.2 °F - 60.8 °F 83% 30.01 in 10.0 mi South 6.9 mph - N/A   Clear
9:55 PM 66.2 °F - 60.8 °F 83% 30.01 in 10.0 mi SSW 8.1 mph - N/A   Clear
10:15 PM 66.2 °F - 60.8 °F 83% 30.02 in 10.0 mi SSW 8.1 mph - N/A   Clear
10:35 PM 66.2 °F - 60.8 °F 83% 30.02 in 10.0 mi SSE 5.8 mph - N/A   Clear
11:15 PM 66.2 °F - 60.8 °F 83% 30.03 in 10.0 mi SSE 3.5 mph - N/A   Clear
11:35 PM 64.4 °F - 60.8 °F 88% 30.03 in 10.0 mi SSE 3.5 mph - N/A   Clear
11:55 PM 64.4 °F - 60.8 °F 88% 30.03 in 10.0 mi South 6.9 mph - N/A   Clear